TimeEDT,TemperatureF,Dew PointF,Humidity,Sea Level PressureIn,VisibilityMPH,Wind Direction,Wind SpeedMPH,Gust SpeedMPH,PrecipitationIn,Events,Conditions,WindDirDegrees,DateUTC
12:14 AM,54.5,53.1,95,30.21,10.0,Calm,Calm,-,N/A,,Clear,0,2013-08-17 04:14:00
12:34 AM,54.7,52.3,92,30.21,10.0,Calm,Calm,-,N/A,,Clear,0,2013-08-17 04:34:00
12:54 AM,52.7,51.4,95,30.21,10.0,Calm,Calm,-,N/A,,Clear,0,2013-08-17 04:54:00
1:13 AM,52.7,51.8,97,30.22,10.0,Calm,Calm,-,N/A,,Clear,0,2013-08-17 05:13:00
1:34 AM,52.7,51.8,97,30.22,10.0,Calm,Calm,-,N/A,,Clear,0,2013-08-17 05:34:00
1:53 AM,53.2,52.2,96,30.22,10.0,NNW,3.5,-,N/A,,Clear,330,2013-08-17 05:53:00
2:13 AM,52.5,51.3,95,30.22,10.0,Calm,Calm,-,N/A,,Clear,0,2013-08-17 06:13:00
2:34 AM,52.3,51.4,97,30.23,10.0,Calm,Calm,-,N/A,,Clear,0,2013-08-17 06:34:00
2:53 AM,50.9,50.2,97,30.23,7.0,Calm,Calm,-,N/A,,Scattered Clouds,0,2013-08-17 06:53:00
3:13 AM,50.9,50.2,97,30.23,10.0,Calm,Calm,-,N/A,,Scattered Clouds,0,2013-08-17 07:13:00
3:34 AM,50.5,49.8,97,30.23,10.0,Calm,Calm,-,N/A,,Clear,0,2013-08-17 07:34:00
3:53 AM,50.4,50.0,99,30.23,10.0,Calm,Calm,-,N/A,,Clear,0,2013-08-17 07:53:00
4:14 AM,49.5,49.1,99,30.23,10.0,Calm,Calm,-,N/A,,Clear,0,2013-08-17 08:14:00
4:34 AM,50.2,49.6,98,30.23,10.0,Calm,Calm,-,N/A,,Clear,0,2013-08-17 08:34:00
4:53 AM,49.8,49.3,98,30.23,10.0,Calm,Calm,-,N/A,,Clear,0,2013-08-17 08:53:00
5:14 AM,50.4,50.0,99,30.23,7.0,Calm,Calm,-,N/A,,Mostly Cloudy,0,2013-08-17 09:14:00
5:34 AM,50.5,50.2,99,30.24,10.0,Calm,Calm,-,N/A,,Mostly Cloudy,0,2013-08-17 09:34:00
5:53 AM,50.9,50.2,97,30.24,10.0,Calm,Calm,-,N/A,,Scattered Clouds,0,2013-08-17 09:53:00
6:14 AM,50.4,50.0,99,30.24,1.0,Calm,Calm,-,N/A,,Mist,0,2013-08-17 10:14:00
6:33 AM,49.6,49.1,98,30.24,4.0,NW,3.5,-,N/A,,Clear,310,2013-08-17 10:33:00
6:54 AM,49.5,49.1,99,30.25,10.0,NW,3.5,-,N/A,,Clear,320,2013-08-17 10:54:00
7:14 AM,50.0,49.8,99,30.26,10.0,Calm,Calm,-,N/A,,Clear,0,2013-08-17 11:14:00
7:33 AM,51.1,50.7,99,30.26,10.0,Calm,Calm,-,N/A,,Clear,0,2013-08-17 11:33:00
7:54 AM,52.7,52.0,97,30.26,10.0,Calm,Calm,-,N/A,,Clear,0,2013-08-17 11:54:00
8:14 AM,54.9,53.6,96,30.26,10.0,Calm,Calm,-,N/A,,Clear,0,2013-08-17 12:14:00
8:33 AM,57.6,55.6,93,30.26,10.0,Calm,Calm,-,N/A,,Clear,0,2013-08-17 12:33:00
8:54 AM,60.8,57.0,87,30.27,10.0,Calm,Calm,-,N/A,,Clear,0,2013-08-17 12:54:00
9:14 AM,63.9,57.7,80,30.27,10.0,Calm,Calm,-,N/A,,Clear,0,2013-08-17 13:14:00
9:33 AM,66.0,56.5,71,30.27,10.0,Calm,Calm,-,N/A,,Clear,0,2013-08-17 13:33:00
9:54 AM,68.4,56.8,67,30.27,10.0,Calm,Calm,-,N/A,,Clear,0,2013-08-17 13:54:00
10:14 AM,70.5,56.3,61,30.27,10.0,Calm,Calm,-,N/A,,Clear,0,2013-08-17 14:14:00
10:33 AM,72.0,56.8,59,30.27,10.0,Calm,Calm,-,N/A,,Clear,0,2013-08-17 14:33:00
10:54 AM,74.8,56.7,53,30.27,10.0,Calm,Calm,-,N/A,,Clear,0,2013-08-17 14:54:00
11:13 AM,76.8,57.4,51,30.28,10.0,Calm,Calm,-,N/A,,Clear,0,2013-08-17 15:13:00
11:34 AM,77.2,55.4,47,30.27,10.0,Calm,Calm,-,N/A,,Clear,0,2013-08-17 15:34:00
11:54 AM,77.7,55.4,46,30.27,10.0,South,3.5,-,N/A,,Clear,190,2013-08-17 15:54:00
12:13 PM,77.9,53.6,43,30.27,10.0,WSW,4.6,-,N/A,,Clear,240,2013-08-17 16:13:00
12:34 PM,79.0,51.6,38,30.26,10.0,Calm,Calm,-,N/A,,Clear,0,2013-08-17 16:34:00
12:54 PM,80.1,53.2,39,30.26,10.0,South,5.8,-,N/A,,Clear,190,2013-08-17 16:54:00
1:13 PM,79.5,52.5,39,30.25,10.0,Calm,Calm,-,N/A,,Clear,0,2013-08-17 17:13:00
1:34 PM,80.4,53.6,39,30.25,10.0,SSE,3.5,-,N/A,,Scattered Clouds,160,2013-08-17 17:34:00
1:53 PM,80.8,53.2,38,30.24,10.0,East,5.8,-,N/A,,Scattered Clouds,90,2013-08-17 17:53:00
2:14 PM,79.2,53.1,40,30.24,10.0,Calm,Calm,-,N/A,,Scattered Clouds,0,2013-08-17 18:14:00
2:34 PM,80.6,51.6,36,30.23,10.0,Calm,Calm,-,N/A,,Clear,0,2013-08-17 18:34:00
2:53 PM,81.5,53.2,38,30.22,10.0,ENE,6.9,-,N/A,,Clear,60,2013-08-17 18:53:00
3:14 PM,81.1,52.7,37,30.21,7.0,East,5.8,-,N/A,,Clear,90,2013-08-17 19:14:00
3:34 PM,82.0,52.5,36,30.21,10.0,East,6.9,-,N/A,,Clear,90,2013-08-17 19:34:00
3:54 PM,79.5,49.8,35,30.21,10.0,Calm,Calm,-,N/A,,Clear,0,2013-08-17 19:54:00
4:14 PM,82.2,50.9,34,30.21,10.0,SE,4.6,-,N/A,,Clear,140,2013-08-17 20:14:00
4:34 PM,80.6,53.2,39,30.20,10.0,NE,5.8,-,N/A,,Scattered Clouds,50,2013-08-17 20:34:00
4:54 PM,80.2,54.0,40,30.21,10.0,NE,5.8,-,N/A,,Scattered Clouds,50,2013-08-17 20:54:00
5:14 PM,81.3,50.4,34,30.20,10.0,SSE,5.8,-,N/A,,Scattered Clouds,160,2013-08-17 21:14:00
5:34 PM,82.4,49.6,32,30.20,10.0,SSE,5.8,-,N/A,,Scattered Clouds,150,2013-08-17 21:34:00
5:54 PM,81.1,50.7,35,30.20,10.0,SE,5.8,-,N/A,,Scattered Clouds,140,2013-08-17 21:54:00
6:14 PM,81.1,51.3,35,30.20,10.0,SE,3.5,-,N/A,,Clear,140,2013-08-17 22:14:00
6:34 PM,80.6,51.4,36,30.20,10.0,SE,5.8,-,N/A,,Clear,140,2013-08-17 22:34:00
6:54 PM,80.6,54.0,40,30.20,10.0,SSE,5.8,-,N/A,,Scattered Clouds,150,2013-08-17 22:54:00
7:14 PM,79.3,53.6,41,30.20,10.0,ESE,6.9,-,N/A,,Mostly Cloudy,120,2013-08-17 23:14:00
7:34 PM,77.9,55.2,45,30.20,10.0,ESE,5.8,-,N/A,,Scattered Clouds,110,2013-08-17 23:34:00
7:54 PM,77.2,56.1,48,30.19,10.0,ESE,5.8,-,N/A,,Clear,110,2013-08-17 23:54:00
8:14 PM,75.6,55.8,50,30.20,10.0,ESE,4.6,-,N/A,,Clear,120,2013-08-18 00:14:00
8:34 PM,73.6,56.3,55,30.19,10.0,East,4.6,-,N/A,,Clear,100,2013-08-18 00:34:00
8:54 PM,69.4,57.2,65,30.20,10.0,Calm,Calm,-,N/A,,Clear,0,2013-08-18 00:54:00
9:14 PM,64.9,57.6,77,30.20,10.0,Calm,Calm,-,N/A,,Clear,0,2013-08-18 01:14:00
9:34 PM,63.3,57.6,81,30.21,10.0,Calm,Calm,-,N/A,,Clear,0,2013-08-18 01:34:00
9:54 PM,61.5,57.6,87,30.21,10.0,Calm,Calm,-,N/A,,Clear,0,2013-08-18 01:54:00
10:13 PM,59.5,57.0,91,30.21,10.0,Calm,Calm,-,N/A,,Clear,0,2013-08-18 02:13:00
10:34 PM,58.8,55.8,90,30.21,10.0,Calm,Calm,-,N/A,,Clear,0,2013-08-18 02:34:00
10:54 PM,59.2,55.8,88,30.21,10.0,Calm,Calm,-,N/A,,Clear,0,2013-08-18 02:54:00
11:13 PM,57.0,54.1,90,30.21,10.0,Calm,Calm,-,N/A,,Clear,0,2013-08-18 03:13:00
11:34 PM,57.0,54.3,91,30.20,10.0,Calm,Calm,-,N/A,,Clear,0,2013-08-18 03:34:00
11:54 PM,57.7,55.9,94,30.20,10.0,Calm,Calm,-,N/A,,Clear,0,2013-08-18 03:54:00